Location: Hopkins Observatory
(42.6965°N, 73.1843°W)
Time: 15:15:28
(UTC-04:00)

UOSAT-12 - Visible Passes

Search period start: 22 May 2017 00:00
Search period end: 01 June 2017 00:00
Orbit: 604 x 650 km, 64.6° (Epoch: 21 May)

Date Brightness Start Highest point End Pass type
(mag) Time Alt. Az. Time Alt. Az. Time Alt. Az.
22 May 7.6 00:42:00 57° NW 00:42:00 57° NW 00:46:20 10° NNE visible
22 May 9.8 02:21:15 10° NW 02:22:54 12° NNW 02:24:33 10° N visible
22 May 8.5 23:23:21 27° ENE 23:23:21 27° ENE 23:25:52 10° NE visible
23 May 8.7 01:00:35 26° WNW 01:01:49 30° NW 01:05:52 10° NNE visible
23 May 7.1 23:41:49 69° ENE 23:41:49 69° ENE 23:45:57 10° NE visible
24 May 9.6 01:19:03 10° W 01:22:02 17° NW 01:25:06 10° N visible
24 May 8.8 22:22:55 17° E 22:22:55 17° E 22:24:48 10° ENE visible
25 May 7.9 00:00:08 40° W 00:01:13 49° NW 00:05:42 10° NNE visible
25 May 10.1 01:41:30 10° NW 01:42:26 11° NNW 01:43:23 10° NNW visible
25 May 7.4 22:41:00 43° ESE 22:41:02 43° ESE 22:45:22 10° NE visible
26 May 9.1 00:18:12 14° W 00:21:17 26° NW 00:25:11 10° NNE visible
26 May 9.1 21:21:35 10° ESE 21:21:35 10° ESE 21:22:11 10° E visible
26 May 7.0 22:58:45 33° SW 23:00:44 87° WNW 23:05:21 10° NNE visible
27 May 9.9 00:38:48 10° WNW 00:41:33 15° NW 00:44:18 10° N visible
27 May 8.2 21:38:45 17° SSE 21:40:49 23° ESE 21:44:25 10° ENE visible
27 May 8.2 23:16:21 10° WSW 23:20:39 42° NW 23:25:03 10° NNE visible
28 May 7.2 21:56:02 10° SSW 22:00:23 50° ESE 22:04:50 10° NE visible
28 May 9.4 23:37:06 10° W 23:40:46 23° NW 23:44:28 10° N visible
29 May 7.2 22:15:38 10° SW 22:20:09 75° NW 22:24:46 10° NNE visible
29 May 10.1 23:58:39 10° WNW 00:01:03 14° NW 00:03:29 10° N visible
30 May 8.0 20:56:20 10° S 21:00:08 27° ESE 21:04:01 10° NE visible
30 May 8.7 22:35:53 10° WSW 22:40:06 37° NW 22:44:23 10° NNE visible
31 May 7.1 21:15:20 10° SSW 21:19:45 60° ESE 21:24:17 10° NE visible
31 May 9.8 22:56:47 10° W 23:00:14 21° NW 23:03:44 10° N visible
